| time (UTC) | temp F | wind direction | speed MPH | gust MPH | rain 1hr in | rain 24hr in | rain mn in | humidity % | barometer mb |
| 20260831075004 | 67 | 61 | 1.0 | 3.0 | 0.00 | 0.02 | 0.00 | 99 | 1014.1 |
| 20260831074004 | 67 | 0 | 1.0 | 2.0 | 0.00 | 0.02 | 0.00 | 99 | 1014.1 |
| 20260831073004 | 67 | 24 | 0.0 | 2.0 | 0.00 | 0.02 | 0.00 | 99 | 1014.2 |
| 20260831072004 | 68 | 357 | 0.0 | 1.0 | 0.00 | 0.02 | 0.00 | 99 | 1014.4 |
| 20260831071004 | 68 | 16 | 0.0 | 1.0 | 0.00 | 0.02 | 0.00 | 99 | 1014.4 |
| 20260831070004 | 68 | 356 | 1.0 | 1.0 | 0.00 | 0.02 | 0.00 | 99 | 1014.3 |
| 20260831065003 | 68 | 37 | 0.0 | 2.0 | 0.00 | 0.02 | 0.00 | 99 | 1014.4 |
| 20260831064005 | 68 | 338 | 1.0 | 2.0 | 0.00 | 0.02 | 0.00 | 99 | 1014.4 |
| 20260831063004 | 68 | 5 | 1.0 | 3.0 | 0.00 | 0.02 | 0.00 | 99 | 1014.2 |
| 20260831062004 | 68 | 36 | 1.0 | 3.0 | 0.00 | 0.02 | 0.00 | 99 | 1014.4 |
| 20260831061003 | 68 | 2 | 1.0 | 2.0 | 0.00 | 0.02 | 0.00 | 99 | 1014.3 |
| 20260831060004 | 68 | 24 | 1.0 | 2.0 | 0.00 | 0.02 | 0.00 | 99 | 1014.3 |
| 20260831055004 | 68 | 45 | 1.0 | 2.0 | 0.00 | 0.02 | 0.00 | 99 | 1014.7 |
| 20260831054004 | 68 | 0 | 0.0 | 1.0 | 0.00 | 0.02 | 0.00 | 99 | 1015.0 |
| 20260831053004 | 68 | 2 | 0.0 | 1.0 | 0.00 | 0.02 | 0.00 | 99 | 1014.9 |
| 20260831051004 | 68 | 20 | 1.0 | 3.0 | 0.00 | 0.02 | 0.00 | 99 | 1014.8 |
| 20260831045004 | 68 | 58 | 1.0 | 2.0 | 0.00 | 0.01 | 0.01 | 99 | 1014.6 |
| 20260831044005 | 68 | 26 | 1.0 | 2.0 | 0.00 | 0.01 | 0.01 | 99 | 1014.8 |
| 20260831043003 | 68 | 3 | 1.0 | 1.0 | 0.00 | 0.01 | 0.01 | 99 | 1015.1 |
| 20260831042004 | 68 | 353 | 1.0 | 1.0 | 0.00 | 0.01 | 0.01 | 99 | 1015.0 |
| 20260831040004 | 68 | 31 | 1.0 | 1.0 | 0.00 | 0.01 | 0.01 | 99 | 1014.8 |
| 20260831035003 | 68 | 16 | 0.0 | 2.0 | 0.00 | 0.01 | 0.01 | 99 | 1014.8 |
| 20260831033004 | 68 | 55 | 1.0 | 3.0 | 0.00 | 0.01 | 0.01 | 99 | 1014.8 |
| 20260831031004 | 68 | 19 | 1.0 | 3.0 | 0.00 | 0.01 | 0.01 | 99 | 1014.8 |
| 20260831030004 | 68 | 10 | 1.0 | 2.0 | 0.00 | 0.01 | 0.01 | 99 | 1014.7 |
| 20260831025004 | 68 | 9 | 1.0 | 2.0 | 0.00 | 0.01 | 0.01 | 99 | 1014.7 |
| 20260831023004 | 68 | 26 | 1.0 | 3.0 | 0.00 | 0.01 | 0.01 | 99 | 1014.4 |
| 20260831022004 | 68 | 94 | 2.0 | 3.0 | 0.00 | 0.01 | 0.01 | 99 | 1014.6 |
| 20260831021004 | 68 | 29 | 1.0 | 1.0 | 0.00 | 0.01 | 0.01 | 99 | 1014.6 |
| 20260831020003 | 68 | 354 | 0.0 | 2.0 | 0.00 | 0.01 | 0.01 | 99 | 1014.5 |
| 20260831015004 | 68 | 6 | 1.0 | 1.0 | 0.00 | 0.01 | 0.01 | 99 | 1014.6 |
| 20260831014004 | 68 | 4 | 1.0 | 1.0 | 0.00 | 0.01 | 0.01 | 99 | 1014.7 |
| 20260831013005 | 68 | 28 | 0.0 | 1.0 | 0.00 | 0.01 | 0.01 | 99 | 1014.7 |
| 20260831012004 | 68 | 357 | 1.0 | 1.0 | 0.00 | 0.01 | 0.01 | 99 | 1014.4 |
| 20260831011004 | 69 | 353 | 1.0 | 1.0 | 0.00 | 0.01 | 0.01 | 99 | 1014.5 |
| 20260831005004 | 69 | 352 | 1.0 | 1.0 | 0.00 | 0.01 | 0.01 | 99 | 1014.3 |
| 20260831004004 | 69 | 313 | 1.0 | 1.0 | 0.00 | 0.01 | 0.01 | 99 | 1014.3 |
| 20260831003003 | 69 | 333 | 1.0 | 1.0 | 0.00 | 0.01 | 0.01 | 99 | 1014.0 |
| 20260831001004 | 69 | 354 | 1.0 | 1.0 | 0.00 | 0.01 | 0.01 | 99 | 1014.2 |
| 20260831000004 | 69 | 351 | 1.0 | 3.0 | 0.00 | 0.01 | 0.01 | 99 | 1014.0 |
| 20260830235003 | 69 | 0 | 0.0 | 2.0 | 0.00 | 0.03 | 0.01 | 99 | 1014.1 |
| 20260830234004 | 69 | 48 | 1.0 | 2.0 | 0.00 | 0.08 | 0.01 | 99 | 1013.9 |
| 20260830233004 | 69 | 5 | 1.0 | 2.0 | 0.00 | 0.11 | 0.01 | 99 | 1013.8 |
| 20260830232003 | 69 | 30 | 1.0 | 3.0 | 0.00 | 0.11 | 0.01 | 99 | 1013.7 |
| 20260830225003 | 70 | 353 | 1.0 | 2.0 | 0.00 | 0.14 | 0.01 | 99 | 1013.7 |
| 20260830224004 | 70 | 44 | 0.0 | 2.0 | 0.00 | 0.17 | 0.01 | 99 | 1013.5 |
| 20260830223004 | 70 | 6 | 0.0 | 1.0 | 0.00 | 0.19 | 0.01 | 99 | 1013.6 |
| 20260830221003 | 70 | 4 | 0.0 | 1.0 | 0.00 | 0.24 | 0.01 | 99 | 1013.9 |
| 20260830220004 | 70 | 5 | 1.0 | 1.0 | 0.00 | 0.24 | 0.01 | 99 | 1014.0 |
| 20260830215004 | 70 | 350 | 1.0 | 3.0 | 0.00 | 0.25 | 0.01 | 99 | 1014.0 |
| 20260830214004 | 70 | 20 | 0.0 | 2.0 | 0.00 | 0.26 | 0.01 | 99 | 1013.8 |
| 20260830213003 | 70 | 349 | 0.0 | 1.0 | 0.00 | 0.26 | 0.01 | 99 | 1013.8 |
| 20260830212003 | 70 | 11 | 0.0 | 2.0 | 0.00 | 0.26 | 0.01 | 99 | 1013.8 |
| 20260830211003 | 70 | 336 | 1.0 | 2.0 | 0.00 | 0.26 | 0.01 | 99 | 1013.7 |
| 20260830210004 | 70 | 69 | 0.0 | 2.0 | 0.00 | 0.26 | 0.01 | 99 | 1013.5 |
| 20260830205004 | 71 | 347 | 1.0 | 1.0 | 0.00 | 0.26 | 0.01 | 99 | 1013.9 |
| 20260830204003 | 71 | 0 | 1.0 | 1.0 | 0.00 | 0.26 | 0.01 | 98 | 1014.1 |
| 20260830202004 | 71 | 358 | 1.0 | 1.0 | 0.00 | 0.26 | 0.01 | 98 | 1014.1 |
| 20260830201004 | 71 | 351 | 1.0 | 3.0 | 0.00 | 0.26 | 0.01 | 98 | 1013.9 |
| 20260830193004 | 72 | 329 | 1.0 | 2.0 | 0.00 | 0.28 | 0.01 | 97 | 1014.1 |
| 20260830192004 | 71 | 330 | 1.0 | 2.0 | 0.00 | 0.28 | 0.01 | 97 | 1013.9 |
| 20260830191003 | 71 | 4 | 1.0 | 3.0 | 0.00 | 0.28 | 0.01 | 97 | 1014.0 |
| 20260830190004 | 71 | 90 | 0.0 | 2.0 | 0.00 | 0.28 | 0.01 | 97 | 1013.6 |
| 20260830185004 | 71 | 350 | 1.0 | 3.0 | 0.00 | 0.29 | 0.01 | 97 | 1013.5 |
| 20260830184004 | 71 | 349 | 1.0 | 2.0 | 0.00 | 0.30 | 0.01 | 97 | 1013.7 |
| 20260830183004 | 71 | 18 | 2.0 | 3.0 | 0.00 | 0.31 | 0.01 | 97 | 1013.6 |
| 20260830182004 | 71 | 20 | 0.0 | 3.0 | 0.00 | 0.31 | 0.01 | 99 | 1013.5 |
| 20260830181004 | 70 | 21 | 0.0 | 2.0 | 0.00 | 0.32 | 0.01 | 99 | 1013.7 |
| 20260830180004 | 70 | 358 | 1.0 | 2.0 | 0.00 | 0.32 | 0.01 | 99 | 1013.7 |
| 20260830175004 | 70 | 348 | 1.0 | 3.0 | 0.00 | 0.33 | 0.01 | 99 | 1013.8 |
| 20260830174003 | 71 | 43 | 1.0 | 2.0 | 0.00 | 0.33 | 0.01 | 98 | 1013.7 |
| 20260830173004 | 70 | 24 | 1.0 | 2.0 | 0.00 | 0.34 | 0.01 | 98 | 1013.8 |
| 20260830172003 | 70 | 45 | 1.0 | 3.0 | 0.00 | 0.34 | 0.01 | 99 | 1013.9 |
| 20260830171003 | 70 | 22 | 0.0 | 3.0 | 0.00 | 0.34 | 0.01 | 99 | 1013.9 |
| 20260830170004 | 69 | 2 | 1.0 | 3.0 | 0.00 | 0.34 | 0.01 | 99 | 1014.0 |
| 20260830165004 | 68 | 32 | 1.0 | 2.0 | 0.00 | 0.34 | 0.01 | 99 | 1014.1 |
| 20260830163004 | 67 | 28 | 1.0 | 5.0 | 0.00 | 0.34 | 0.01 | 99 | 1014.3 |
| 20260830162004 | 67 | 55 | 1.0 | 2.0 | 0.00 | 0.34 | 0.01 | 99 | 1014.2 |
| 20260830161004 | 67 | 28 | 1.0 | 2.0 | 0.00 | 0.34 | 0.01 | 99 | 1014.5 |
| 20260830160003 | 67 | 39 | 1.0 | 2.0 | 0.00 | 0.34 | 0.01 | 99 | 1014.5 |
| 20260830155004 | 67 | 27 | 1.0 | 2.0 | 0.00 | 0.34 | 0.01 | 99 | 1014.2 |
| 20260830154004 | 67 | 347 | 1.0 | 2.0 | 0.00 | 0.34 | 0.01 | 99 | 1014.1 |
| 20260830153004 | 67 | 6 | 1.0 | 2.0 | 0.00 | 0.34 | 0.01 | 99 | 1013.9 |
| 20260830152003 | 67 | 27 | 1.0 | 2.0 | 0.00 | 0.34 | 0.01 | 99 | 1013.7 |
| 20260830151004 | 67 | 4 | 1.0 | 2.0 | 0.00 | 0.34 | 0.01 | 99 | 1013.7 |
| 20260830145004 | 67 | 351 | 1.0 | 2.0 | 0.00 | 0.34 | 0.01 | 99 | 1013.9 |
| 20260830142003 | 66 | 45 | 1.0 | 1.0 | 0.00 | 0.34 | 0.01 | 99 | 1013.7 |
| 20260830140004 | 66 | 47 | 0.0 | 1.0 | 0.00 | 0.34 | 0.01 | 99 | 1013.8 |
| 20260830135003 | 66 | 357 | 0.0 | 1.0 | 0.00 | 0.34 | 0.01 | 99 | 1013.9 |
| 20260830134004 | 66 | 316 | 0.0 | 2.0 | 0.00 | 0.34 | 0.01 | 99 | 1013.8 |
| 20260830133004 | 65 | 343 | 0.0 | 2.0 | 0.00 | 0.34 | 0.01 | 99 | 1013.6 |
| 20260830132004 | 65 | 343 | 1.0 | 2.0 | 0.00 | 0.34 | 0.01 | 99 | 1013.7 |
| 20260830131004 | 65 | 0 | 1.0 | 2.0 | 0.00 | 0.34 | 0.01 | 99 | 1013.9 |
| 20260830124004 | 64 | 17 | 1.0 | 2.0 | 0.00 | 0.34 | 0.01 | 99 | 1013.9 |
| 20260830123004 | 64 | 335 | 1.0 | 2.0 | 0.00 | 0.34 | 0.01 | 99 | 1014.0 |
| 20260830121004 | 64 | 11 | 1.0 | 1.0 | 0.00 | 0.34 | 0.01 | 99 | 1013.7 |
| 20260830120004 | 64 | 5 | 0.0 | 1.0 | 0.00 | 0.34 | 0.01 | 99 | 1013.7 |
| 20260830115004 | 64 | 349 | 1.0 | 2.0 | 0.00 | 0.34 | 0.01 | 99 | 1013.6 |
| 20260830114004 | 64 | 340 | 0.0 | 2.0 | 0.00 | 0.34 | 0.01 | 99 | 1013.6 |
| 20260830113004 | 63 | 349 | 1.0 | 3.0 | 0.00 | 0.34 | 0.01 | 99 | 1013.3 |
| 20260830111004 | 63 | 355 | 1.0 | 3.0 | 0.01 | 0.34 | 0.01 | 99 | 1013.4 |
| 20260830105003 | 63 | 23 | 1.0 | 2.0 | 0.01 | 0.34 | 0.01 | 99 | 1013.2 |
| 20260830104004 | 63 | 349 | 1.0 | 3.0 | 0.01 | 0.34 | 0.01 | 99 | 1013.3 |
| 20260830103004 | 63 | 351 | 0.0 | 5.0 | 0.01 | 0.34 | 0.01 | 99 | 1013.4 |
| 20260830101004 | 63 | 47 | 1.0 | 2.0 | 0.00 | 0.33 | 0.00 | 99 | 1013.2 |
| 20260830100004 | 63 | 1 | 1.0 | 2.0 | 0.00 | 0.33 | 0.00 | 99 | 1013.2 |
| 20260830095004 | 63 | 326 | 1.0 | 2.0 | 0.00 | 0.33 | 0.00 | 99 | 1013.4 |
| 20260830094004 | 64 | 341 | 1.0 | 2.0 | 0.00 | 0.33 | 0.00 | 99 | 1013.5 |
| 20260830093004 | 63 | 349 | 1.0 | 2.0 | 0.00 | 0.33 | 0.00 | 99 | 1013.4 |
| 20260830092004 | 64 | 5 | 0.0 | 2.0 | 0.00 | 0.33 | 0.00 | 99 | 1013.5 |
| 20260830091003 | 64 | 0 | 0.0 | 1.0 | 0.00 | 0.33 | 0.00 | 99 | 1013.5 |
| 20260830090004 | 64 | 1 | 1.0 | 1.0 | 0.00 | 0.33 | 0.00 | 99 | 1013.3 |
| 20260830084003 | 64 | 13 | 0.0 | 1.0 | 0.00 | 0.33 | 0.00 | 99 | 1013.5 |
| 20260830083003 | 64 | 39 | 0.0 | 1.0 | 0.00 | 0.33 | 0.00 | 99 | 1013.6 |
| 20260830081004 | 64 | 17 | 0.0 | 1.0 | 0.00 | 0.33 | 0.00 | 99 | 1013.8 |